Netzbetreibername:;Stadtwerke Schwarzenberg GmbH;;
Netz- oder Umspannebene:;Umspannung MS/NS;;
Lastgangtyp:;Lastverlauf Umspannung MS/NS;;
gesetzliche Grundlage:;� 17 Abs. 2 Nr. 1 StromNZV;;
Einheit:;kW;;
Betrachtungszeitraum:;01.01.2022;bis;31.12.2022
;;;
Datum;von;bis;Wert
01.01.2022;0:00;0:15;3422
01.01.2022;0:15;0:30;3346
01.01.2022;0:30;0:45;3297
01.01.2022;0:45;1:00;3147
01.01.2022;1:00;1:15;3085
01.01.2022;1:15;1:30;2999
01.01.2022;1:30;1:45;2866
01.01.2022;1:45;2:00;2782
01.01.2022;2:00;2:15;2699
01.01.2022;2:15;2:30;2602
01.01.2022;2:30;2:45;2555
01.01.2022;2:45;3:00;2480
01.01.2022;3:00;3:15;2427
01.01.2022;3:15;3:30;2400
01.01.2022;3:30;3:45;2415
01.01.2022;3:45;4:00;2429
01.01.2022;4:00;4:15;2448
01.01.2022;4:15;4:30;2481
01.01.2022;4:30;4:45;2605
01.01.2022;4:45;5:00;2590
01.01.2022;5:00;5:15;2630
01.01.2022;5:15;5:30;2638
01.01.2022;5:30;5:45;2644
01.01.2022;5:45;6:00;2619
01.01.2022;6:00;6:15;2668
01.01.2022;6:15;6:30;2752
01.01.2022;6:30;6:45;2811
01.01.2022;6:45;7:00;2828
01.01.2022;7:00;7:15;2904
01.01.2022;7:15;7:30;2971
01.01.2022;7:30;7:45;3020
01.01.2022;7:45;8:00;3076
01.01.2022;8:00;8:15;2919
01.01.2022;8:15;8:30;3098
01.01.2022;8:30;8:45;3193
01.01.2022;8:45;9:00;3339
01.01.2022;9:00;9:15;3404
01.01.2022;9:15;9:30;3473
01.01.2022;9:30;9:45;3491
01.01.2022;9:45;10:00;3603
01.01.2022;10:00;10:15;3665
01.01.2022;10:15;10:30;3777
01.01.2022;10:30;10:45;3824
01.01.2022;10:45;11:00;3935
01.01.2022;11:00;11:15;4061
01.01.2022;11:15;11:30;4429
01.01.2022;11:30;11:45;4601
01.01.2022;11:45;12:00;4599
01.01.2022;12:00;12:15;4541
01.01.2022;12:15;12:30;4516
01.01.2022;12:30;12:45;4297
01.01.2022;12:45;13:00;4177
01.01.2022;13:00;13:15;3945
01.01.2022;13:15;13:30;3851
01.01.2022;13:30;13:45;3768
01.01.2022;13:45;14:00;3741
01.01.2022;14:00;14:15;3659
01.01.2022;14:15;14:30;3704
01.01.2022;14:30;14:45;3766
01.01.2022;14:45;15:00;3791
01.01.2022;15:00;15:15;3876
01.01.2022;15:15;15:30;3766
01.01.2022;15:30;15:45;3856
01.01.2022;15:45;16:00;3965
01.01.2022;16:00;16:15;4256
01.01.2022;16:15;16:30;4462
01.01.2022;16:30;16:45;4825
01.01.2022;16:45;17:00;5021
01.01.2022;17:00;17:15;5215
01.01.2022;17:15;17:30;5362
01.01.2022;17:30;17:45;5536
01.01.2022;17:45;18:00;5627
01.01.2022;18:00;18:15;5542
01.01.2022;18:15;18:30;5539
01.01.2022;18:30;18:45;5618
01.01.2022;18:45;19:00;5520
01.01.2022;19:00;19:15;5494
01.01.2022;19:15;19:30;5439
01.01.2022;19:30;19:45;5373
01.01.2022;19:45;20:00;5259
01.01.2022;20:00;20:15;5187
01.01.2022;20:15;20:30;5078
01.01.2022;20:30;20:45;4938
01.01.2022;20:45;21:00;4803
01.01.2022;21:00;21:15;4698
01.01.2022;21:15;21:30;4618
01.01.2022;21:30;21:45;4521
01.01.2022;21:45;22:00;4436
01.01.2022;22:00;22:15;4313
01.01.2022;22:15;22:30;4079
01.01.2022;22:30;22:45;3895
01.01.2022;22:45;23:00;3742
01.01.2022;23:00;23:15;3512
01.01.2022;23:15;23:30;3381
01.01.2022;23:30;23:45;3222
01.01.2022;23:45;0:00;3074
02.01.2022;0:00;0:15;2940
02.01.2022;0:15;0:30;2774
02.01.2022;0:30;0:45;2688
02.01.2022;0:45;1:00;2630
02.01.2022;1:00;1:15;2525
02.01.2022;1:15;1:30;2482
02.01.2022;1:30;1:45;2441
02.01.2022;1:45;2:00;2444
02.01.2022;2:00;2:15;2387
02.01.2022;2:15;2:30;2363
02.01.2022;2:30;2:45;2351
02.01.2022;2:45;3:00;2398
02.01.2022;3:00;3:15;2448
02.01.2022;3:15;3:30;2429
02.01.2022;3:30;3:45;2473
02.01.2022;3:45;4:00;2535
02.01.2022;4:00;4:15;2577
02.01.2022;4:15;4:30;2559
02.01.2022;4:30;4:45;2667
02.01.2022;4:45;5:00;2668
02.01.2022;5:00;5:15;2730
02.01.2022;5:15;5:30;2752
02.01.2022;5:30;5:45;2736
02.01.2022;5:45;6:00;2724
02.01.2022;6:00;6:15;2778
02.01.2022;6:15;6:30;2784
02.01.2022;6:30;6:45;2869
02.01.2022;6:45;7:00;2964
02.01.2022;7:00;7:15;3075
02.01.2022;7:15;7:30;3192
02.01.2022;7:30;7:45;3315
02.01.2022;7:45;8:00;3409
02.01.2022;8:00;8:15;3469
02.01.2022;8:15;8:30;3591
02.01.2022;8:30;8:45;3681
02.01.2022;8:45;9:00;3802
02.01.2022;9:00;9:15;3910
02.01.2022;9:15;9:30;3948
02.01.2022;9:30;9:45;3969
02.01.2022;9:45;10:00;3897
02.01.2022;10:00;10:15;4037
02.01.2022;10:15;10:30;4124
02.01.2022;10:30;10:45;4107
02.01.2022;10:45;11:00;4434
02.01.2022;11:00;11:15;4622
02.01.2022;11:15;11:30;4915
02.01.2022;11:30;11:45;5050
02.01.2022;11:45;12:00;5047
02.01.2022;12:00;12:15;4879
02.01.2022;12:15;12:30;4616
02.01.2022;12:30;12:45;4462
02.01.2022;12:45;13:00;4295
02.01.2022;13:00;13:15;4115
02.01.2022;13:15;13:30;4014
02.01.2022;13:30;13:45;4043
02.01.2022;13:45;14:00;3886
02.01.2022;14:00;14:15;3868
02.01.2022;14:15;14:30;3772
02.01.2022;14:30;14:45;3655
02.01.2022;14:45;15:00;3662
02.01.2022;15:00;15:15;3713
02.01.2022;15:15;15:30;3738
02.01.2022;15:30;15:45;3844
02.01.2022;15:45;16:00;3945
02.01.2022;16:00;16:15;4089
02.01.2022;16:15;16:30;4338
02.01.2022;16:30;16:45;4830
02.01.2022;16:45;17:00;5206
02.01.2022;17:00;17:15;5414
02.01.2022;17:15;17:30;5584
02.01.2022;17:30;17:45;5729
02.01.2022;17:45;18:00;5704
02.01.2022;18:00;18:15;5725
02.01.2022;18:15;18:30;5735
02.01.2022;18:30;18:45;5712
02.01.2022;18:45;19:00;5705
02.01.2022;19:00;19:15;5648
02.01.2022;19:15;19:30;5504
02.01.2022;19:30;19:45;5411
02.01.2022;19:45;20:00;5285
02.01.2022;20:00;20:15;5198
02.01.2022;20:15;20:30;5029
02.01.2022;20:30;20:45;4962
02.01.2022;20:45;21:00;4843
02.01.2022;21:00;21:15;4701
02.01.2022;21:15;21:30;4555
02.01.2022;21:30;21:45;4491
02.01.2022;21:45;22:00;4412
02.01.2022;22:00;22:15;4175
02.01.2022;22:15;22:30;3965
02.01.2022;22:30;22:45;3686
02.01.2022;22:45;23:00;3507
02.01.2022;23:00;23:15;3272
02.01.2022;23:15;23:30;3146
02.01.2022;23:30;23:45;2975
02.01.2022;23:45;0:00;2862
03.01.2022;0:00;0:15;2770
03.01.2022;0:15;0:30;2620
03.01.2022;0:30;0:45;2598
03.01.2022;0:45;1:00;2533
03.01.2022;1:00;1:15;2518
03.01.2022;1:15;1:30;2515
03.01.2022;1:30;1:45;2457
03.01.2022;1:45;2:00;2438
03.01.2022;2:00;2:15;2405
03.01.2022;2:15;2:30;2367
03.01.2022;2:30;2:45;2374
03.01.2022;2:45;3:00;2438
03.01.2022;3:00;3:15;2447
03.01.2022;3:15;3:30;2527
03.01.2022;3:30;3:45;2534
03.01.2022;3:45;4:00;2584
03.01.2022;4:00;4:15;2668
03.01.2022;4:15;4:30;2730
03.01.2022;4:30;4:45;2896
03.01.2022;4:45;5:00;2937
03.01.2022;5:00;5:15;3074
03.01.2022;5:15;5:30;3222
03.01.2022;5:30;5:45;3456
03.01.2022;5:45;6:00;3594
03.01.2022;6:00;6:15;4058
03.01.2022;6:15;6:30;4250
03.01.2022;6:30;6:45;4368
03.01.2022;6:45;7:00;4567
03.01.2022;7:00;7:15;4764
03.01.2022;7:15;7:30;4927
03.01.2022;7:30;7:45;5111
03.01.2022;7:45;8:00;5222
03.01.2022;8:00;8:15;5222
03.01.2022;8:15;8:30;5245
03.01.2022;8:30;8:45;5215
03.01.2022;8:45;9:00;5280
03.01.2022;9:00;9:15;5423
03.01.2022;9:15;9:30;5348
03.01.2022;9:30;9:45;5449
03.01.2022;9:45;10:00;5376
03.01.2022;10:00;10:15;5233
03.01.2022;10:15;10:30;5122
03.01.2022;10:30;10:45;5071
03.01.2022;10:45;11:00;5203
03.01.2022;11:00;11:15;5282
03.01.2022;11:15;11:30;5517
03.01.2022;11:30;11:45;5568
03.01.2022;11:45;12:00;5321
03.01.2022;12:00;12:15;5122
03.01.2022;12:15;12:30;4894
03.01.2022;12:30;12:45;4777
03.01.2022;12:45;13:00;5133
03.01.2022;13:00;13:15;5161
03.01.2022;13:15;13:30;5062
03.01.2022;13:30;13:45;5064
03.01.2022;13:45;14:00;5122
03.01.2022;14:00;14:15;5099
03.01.2022;14:15;14:30;5094
03.01.2022;14:30;14:45;4941
03.01.2022;14:45;15:00;4896
03.01.2022;15:00;15:15;4870
03.01.2022;15:15;15:30;4959
03.01.2022;15:30;15:45;5059
03.01.2022;15:45;16:00;5197
03.01.2022;16:00;16:15;5501
03.01.2022;16:15;16:30;5714
03.01.2022;16:30;16:45;6075
03.01.2022;16:45;17:00;6245
03.01.2022;17:00;17:15;6324
03.01.2022;17:15;17:30;6442
03.01.2022;17:30;17:45;6486
03.01.2022;17:45;18:00;6587
03.01.2022;18:00;18:15;6514
03.01.2022;18:15;18:30;6434
03.01.2022;18:30;18:45;6367
03.01.2022;18:45;19:00;6254
03.01.2022;19:00;19:15;6074
03.01.2022;19:15;19:30;5936
03.01.2022;19:30;19:45;5817
03.01.2022;19:45;20:00;5606
03.01.2022;20:00;20:15;5501
03.01.2022;20:15;20:30;5374
03.01.2022;20:30;20:45;5219
03.01.2022;20:45;21:00;5087
03.01.2022;21:00;21:15;4873
03.01.2022;21:15;21:30;4756
03.01.2022;21:30;21:45;4664
03.01.2022;21:45;22:00;4498
03.01.2022;22:00;22:15;4165
03.01.2022;22:15;22:30;3968
03.01.2022;22:30;22:45;3699
03.01.2022;22:45;23:00;3542
03.01.2022;23:00;23:15;3275
03.01.2022;23:15;23:30;3108
03.01.2022;23:30;23:45;2935
03.01.2022;23:45;0:00;2823
04.01.2022;0:00;0:15;2730
04.01.2022;0:15;0:30;2615
04.01.2022;0:30;0:45;2524
04.01.2022;0:45;1:00;2476
04.01.2022;1:00;1:15;2501
04.01.2022;1:15;1:30;2504
04.01.2022;1:30;1:45;2463
04.01.2022;1:45;2:00;2418
04.01.2022;2:00;2:15;2385
04.01.2022;2:15;2:30;2393
04.01.2022;2:30;2:45;2396
04.01.2022;2:45;3:00;2414
04.01.2022;3:00;3:15;2419
04.01.2022;3:15;3:30;2481
04.01.2022;3:30;3:45;2549
04.01.2022;3:45;4:00;2630
04.01.2022;4:00;4:15;2721
04.01.2022;4:15;4:30;2756
04.01.2022;4:30;4:45;2903
04.01.2022;4:45;5:00;3044
04.01.2022;5:00;5:15;3251
04.01.2022;5:15;5:30;3347
04.01.2022;5:30;5:45;3622
04.01.2022;5:45;6:00;3847
04.01.2022;6:00;6:15;4123
04.01.2022;6:15;6:30;4259
04.01.2022;6:30;6:45;4486
04.01.2022;6:45;7:00;4698
04.01.2022;7:00;7:15;4842
04.01.2022;7:15;7:30;5045
04.01.2022;7:30;7:45;5211
04.01.2022;7:45;8:00;5392
04.01.2022;8:00;8:15;5335
04.01.2022;8:15;8:30;5364
04.01.2022;8:30;8:45;5459
04.01.2022;8:45;9:00;5621
04.01.2022;9:00;9:15;5544
04.01.2022;9:15;9:30;5516
04.01.2022;9:30;9:45;5521
04.01.2022;9:45;10:00;5598
04.01.2022;10:00;10:15;5570
04.01.2022;10:15;10:30;5543
04.01.2022;10:30;10:45;5517
04.01.2022;10:45;11:00;5505
04.01.2022;11:00;11:15;5665
04.01.2022;11:15;11:30;5762
04.01.2022;11:30;11:45;5725
04.01.2022;11:45;12:00;5765
04.01.2022;12:00;12:15;5598
04.01.2022;12:15;12:30;5531
04.01.2022;12:30;12:45;5538
04.01.2022;12:45;13:00;5572
04.01.2022;13:00;13:15;5596
04.01.2022;13:15;13:30;5468
04.01.2022;13:30;13:45;5341
04.01.2022;13:45;14:00;5266
04.01.2022;14:00;14:15;5304
04.01.2022;14:15;14:30;5390
04.01.2022;14:30;14:45;5360
04.01.2022;14:45;15:00;5323
04.01.2022;15:00;15:15;5322
04.01.2022;15:15;15:30;5328
04.01.2022;15:30;15:45;5416
04.01.2022;15:45;16:00;5508
04.01.2022;16:00;16:15;5702
04.01.2022;16:15;16:30;5913
04.01.2022;16:30;16:45;6215
04.01.2022;16:45;17:00;6397
04.01.2022;17:00;17:15;6493
04.01.2022;17:15;17:30;6587
04.01.2022;17:30;17:45;6636
04.01.2022;17:45;18:00;6757
04.01.2022;18:00;18:15;6617
04.01.2022;18:15;18:30;6525
04.01.2022;18:30;18:45;6514
04.01.2022;18:45;19:00;6436
04.01.2022;19:00;19:15;6233
04.01.2022;19:15;19:30;6086
04.01.2022;19:30;19:45;6014
04.01.2022;19:45;20:00;5871
04.01.2022;20:00;20:15;5667
04.01.2022;20:15;20:30;5540
04.01.2022;20:30;20:45;5371
04.01.2022;20:45;21:00;5180
04.01.2022;21:00;21:15;4988
04.01.2022;21:15;21:30;4909
04.01.2022;21:30;21:45;4758
04.01.2022;21:45;22:00;4575
04.01.2022;22:00;22:15;4324
04.01.2022;22:15;22:30;4130
04.01.2022;22:30;22:45;3872
04.01.2022;22:45;23:00;3676
04.01.2022;23:00;23:15;3447
04.01.2022;23:15;23:30;3235
04.01.2022;23:30;23:45;3085
04.01.2022;23:45;0:00;3016
05.01.2022;0:00;0:15;2900
05.01.2022;0:15;0:30;2799
05.01.2022;0:30;0:45;2741
05.01.2022;0:45;1:00;2655
05.01.2022;1:00;1:15;2639
05.01.2022;1:15;1:30;2626
05.01.2022;1:30;1:45;2552
05.01.2022;1:45;2:00;2536
05.01.2022;2:00;2:15;2508
05.01.2022;2:15;2:30;2517
05.01.2022;2:30;2:45;2546
05.01.2022;2:45;3:00;2603
05.01.2022;3:00;3:15;2631
05.01.2022;3:15;3:30;2673
05.01.2022;3:30;3:45;2749
05.01.2022;3:45;4:00;2821
05.01.2022;4:00;4:15;2944
05.01.2022;4:15;4:30;2958
05.01.2022;4:30;4:45;3197
05.01.2022;4:45;5:00;3326
05.01.2022;5:00;5:15;3416
05.01.2022;5:15;5:30;3623
05.01.2022;5:30;5:45;3895
05.01.2022;5:45;6:00;4050
05.01.2022;6:00;6:15;4173
05.01.2022;6:15;6:30;4428
05.01.2022;6:30;6:45;4662
05.01.2022;6:45;7:00;4853
05.01.2022;7:00;7:15;5040
05.01.2022;7:15;7:30;5245
05.01.2022;7:30;7:45;5508
05.01.2022;7:45;8:00;5512
05.01.2022;8:00;8:15;5571
05.01.2022;8:15;8:30;5556
05.01.2022;8:30;8:45;5574
05.01.2022;8:45;9:00;5799
05.01.2022;9:00;9:15;5711
05.01.2022;9:15;9:30;5681
05.01.2022;9:30;9:45;5747
05.01.2022;9:45;10:00;5713
05.01.2022;10:00;10:15;5683
05.01.2022;10:15;10:30;5758
05.01.2022;10:30;10:45;5692
05.01.2022;10:45;11:00;5861
05.01.2022;11:00;11:15;6064
05.01.2022;11:15;11:30;6210
05.01.2022;11:30;11:45;6214
05.01.2022;11:45;12:00;6142
05.01.2022;12:00;12:15;5789
05.01.2022;12:15;12:30;5546
05.01.2022;12:30;12:45;5510
05.01.2022;12:45;13:00;5546
05.01.2022;13:00;13:15;5523
05.01.2022;13:15;13:30;5501
05.01.2022;13:30;13:45;5453
05.01.2022;13:45;14:00;5471
05.01.2022;14:00;14:15;5500
05.01.2022;14:15;14:30;5347
05.01.2022;14:30;14:45;5254
05.01.2022;14:45;15:00;5192
05.01.2022;15:00;15:15;5221
05.01.2022;15:15;15:30;5164
05.01.2022;15:30;15:45;5289
05.01.2022;15:45;16:00;5394
05.01.2022;16:00;16:15;5657
05.01.2022;16:15;16:30;5933
05.01.2022;16:30;16:45;6390
05.01.2022;16:45;17:00;6483
05.01.2022;17:00;17:15;6566
05.01.2022;17:15;17:30;6752
05.01.2022;17:30;17:45;6910
05.01.2022;17:45;18:00;6850
05.01.2022;18:00;18:15;6754
05.01.2022;18:15;18:30;6724
05.01.2022;18:30;18:45;6696
05.01.2022;18:45;19:00;6523
05.01.2022;19:00;19:15;6370
05.01.2022;19:15;19:30;6167
05.01.2022;19:30;19:45;6085
05.01.2022;19:45;20:00;5929
05.01.2022;20:00;20:15;5753
05.01.2022;20:15;20:30;5575
05.01.2022;20:30;20:45;5427
05.01.2022;20:45;21:00;5259
05.01.2022;21:00;21:15;5040
05.01.2022;21:15;21:30;4933
05.01.2022;21:30;21:45;4783
05.01.2022;21:45;22:00;4652
05.01.2022;22:00;22:15;4393
05.01.2022;22:15;22:30;4205
05.01.2022;22:30;22:45;3972
05.01.2022;22:45;23:00;3757
05.01.2022;23:00;23:15;3523
05.01.2022;23:15;23:30;3297
05.01.2022;23:30;23:45;3216
05.01.2022;23:45;0:00;3139
06.01.2022;0:00;0:15;3000
06.01.2022;0:15;0:30;2903
06.01.2022;0:30;0:45;2878
06.01.2022;0:45;1:00;2814
06.01.2022;1:00;1:15;2797
06.01.2022;1:15;1:30;2793
06.01.2022;1:30;1:45;2765
06.01.2022;1:45;2:00;2746
06.01.2022;2:00;2:15;2805
06.01.2022;2:15;2:30;2815
06.01.2022;2:30;2:45;2848
06.01.2022;2:45;3:00;2874
06.01.2022;3:00;3:15;2897
06.01.2022;3:15;3:30;2963
06.01.2022;3:30;3:45;3009
06.01.2022;3:45;4:00;3025
06.01.2022;4:00;4:15;3098
06.01.2022;4:15;4:30;3212
06.01.2022;4:30;4:45;3410
06.01.2022;4:45;5:00;3477
06.01.2022;5:00;5:15;3613
06.01.2022;5:15;5:30;3754
06.01.2022;5:30;5:45;3994
06.01.2022;5:45;6:00;4191
06.01.2022;6:00;6:15;4400
06.01.2022;6:15;6:30;4655
06.01.2022;6:30;6:45;4865
06.01.2022;6:45;7:00;4953
06.01.2022;7:00;7:15;5221
06.01.2022;7:15;7:30;5582
06.01.2022;7:30;7:45;5731
06.01.2022;7:45;8:00;5648
06.01.2022;8:00;8:15;5588
06.01.2022;8:15;8:30;5488
06.01.2022;8:30;8:45;5445
06.01.2022;8:45;9:00;5652
06.01.2022;9:00;9:15;5589
06.01.2022;9:15;9:30;5641
06.01.2022;9:30;9:45;5775
06.01.2022;9:45;10:00;5823
06.01.2022;10:00;10:15;5853
06.01.2022;10:15;10:30;5809
06.01.2022;10:30;10:45;5768
06.01.2022;10:45;11:00;5843
06.01.2022;11:00;11:15;5865
06.01.2022;11:15;11:30;5957
06.01.2022;11:30;11:45;5998
06.01.2022;11:45;12:00;5924
06.01.2022;12:00;12:15;5741
06.01.2022;12:15;12:30;5447
06.01.2022;12:30;12:45;5432
06.01.2022;12:45;13:00;5393
06.01.2022;13:00;13:15;5292
06.01.2022;13:15;13:30;5221
06.01.2022;13:30;13:45;5045
06.01.2022;13:45;14:00;5044
06.01.2022;14:00;14:15;5142
06.01.2022;14:15;14:30;5108
06.01.2022;14:30;14:45;5040
06.01.2022;14:45;15:00;5054
06.01.2022;15:00;15:15;5019
06.01.2022;15:15;15:30;5019
06.01.2022;15:30;15:45;5156
06.01.2022;15:45;16:00;5263
06.01.2022;16:00;16:15;5355
06.01.2022;16:15;16:30;5597
06.01.2022;16:30;16:45;6038
06.01.2022;16:45;17:00;6363
06.01.2022;17:00;17:15;6636
06.01.2022;17:15;17:30;6851
06.01.2022;17:30;17:45;6975
06.01.2022;17:45;18:00;6914
06.01.2022;18:00;18:15;6762
06.01.2022;18:15;18:30;6661
06.01.2022;18:30;18:45;6645
06.01.2022;18:45;19:00;6528
06.01.2022;19:00;19:15;6362
06.01.2022;19:15;19:30;6248
06.01.2022;19:30;19:45;6150
06.01.2022;19:45;20:00;6052
06.01.2022;20:00;20:15;5814
06.01.2022;20:15;20:30;5567
06.01.2022;20:30;20:45;5481
06.01.2022;20:45;21:00;5333
06.01.2022;21:00;21:15;5245
06.01.2022;21:15;21:30;5070
06.01.2022;21:30;21:45;4955
06.01.2022;21:45;22:00;4719
06.01.2022;22:00;22:15;4588
06.01.2022;22:15;22:30;4326
06.01.2022;22:30;22:45;4102
06.01.2022;22:45;23:00;3881
06.01.2022;23:00;23:15;3738
06.01.2022;23:15;23:30;3573
06.01.2022;23:30;23:45;3413
06.01.2022;23:45;0:00;3285
07.01.2022;0:00;0:15;3202
07.01.2022;0:15;0:30;3161
07.01.2022;0:30;0:45;3121
07.01.2022;0:45;1:00;3037
07.01.2022;1:00;1:15;3029
07.01.2022;1:15;1:30;3014
07.01.2022;1:30;1:45;3018
07.01.2022;1:45;2:00;3052
07.01.2022;2:00;2:15;3042
07.01.2022;2:15;2:30;3035
07.01.2022;2:30;2:45;3077
07.01.2022;2:45;3:00;3094
07.01.2022;3:00;3:15;3106
07.01.2022;3:15;3:30;3143
07.01.2022;3:30;3:45;3099
07.01.2022;3:45;4:00;3140
07.01.2022;4:00;4:15;3246
07.01.2022;4:15;4:30;3282
07.01.2022;4:30;4:45;3455
07.01.2022;4:45;5:00;3503
07.01.2022;5:00;5:15;3522
07.01.2022;5:15;5:30;3722
07.01.2022;5:30;5:45;4024
07.01.2022;5:45;6:00;4130
07.01.2022;6:00;6:15;4361
07.01.2022;6:15;6:30;4557
07.01.2022;6:30;6:45;4819
07.01.2022;6:45;7:00;4943
07.01.2022;7:00;7:15;5238
07.01.2022;7:15;7:30;5398
07.01.2022;7:30;7:45;5629
07.01.2022;7:45;8:00;5787
07.01.2022;8:00;8:15;5797
07.01.2022;8:15;8:30;5802
07.01.2022;8:30;8:45;5737
07.01.2022;8:45;9:00;5752
07.01.2022;9:00;9:15;5793
07.01.2022;9:15;9:30;5707
07.01.2022;9:30;9:45;5787
07.01.2022;9:45;10:00;5691
07.01.2022;10:00;10:15;5821
07.01.2022;10:15;10:30;5901
07.01.2022;10:30;10:45;5839
07.01.2022;10:45;11:00;5829
07.01.2022;11:00;11:15;5883
07.01.2022;11:15;11:30;5934
07.01.2022;11:30;11:45;6018
07.01.2022;11:45;12:00;5990
07.01.2022;12:00;12:15;5756
07.01.2022;12:15;12:30;5654
07.01.2022;12:30;12:45;5657
07.01.2022;12:45;13:00;5572
07.01.2022;13:00;13:15;5452
07.01.2022;13:15;13:30;5425
07.01.2022;13:30;13:45;5331
07.01.2022;13:45;14:00;5289
07.01.2022;14:00;14:15;5212
07.01.2022;14:15;14:30;5227
07.01.2022;14:30;14:45;5289
07.01.2022;14:45;15:00;5310
07.01.2022;15:00;15:15;5277
07.01.2022;15:15;15:30;5306
07.01.2022;15:30;15:45;5380
07.01.2022;15:45;16:00;5501
07.01.2022;16:00;16:15;5787
07.01.2022;16:15;16:30;6060
07.01.2022;16:30;16:45;6364
07.01.2022;16:45;17:00;6481
07.01.2022;17:00;17:15;6539
07.01.2022;17:15;17:30;6599
07.01.2022;17:30;17:45;6615
07.01.2022;17:45;18:00;6634
07.01.2022;18:00;18:15;6443
07.01.2022;18:15;18:30;6504
07.01.2022;18:30;18:45;6457
07.01.2022;18:45;19:00;6391
07.01.2022;19:00;19:15;6270
07.01.2022;19:15;19:30;6127
07.01.2022;19:30;19:45;6012
07.01.2022;19:45;20:00;5822
07.01.2022;20:00;20:15;5619
07.01.2022;20:15;20:30;5486
07.01.2022;20:30;20:45;5320
07.01.2022;20:45;21:00;5153
07.01.2022;21:00;21:15;5006
07.01.2022;21:15;21:30;4875
07.01.2022;21:30;21:45;4778
07.01.2022;21:45;22:00;4706
07.01.2022;22:00;22:15;4607
07.01.2022;22:15;22:30;4420
07.01.2022;22:30;22:45;4161
07.01.2022;22:45;23:00;3920
07.01.2022;23:00;23:15;3747
07.01.2022;23:15;23:30;3635
07.01.2022;23:30;23:45;3501
07.01.2022;23:45;0:00;3377
08.01.2022;0:00;0:15;3205
08.01.2022;0:15;0:30;3105
08.01.2022;0:30;0:45;2975
08.01.2022;0:45;1:00;2952
08.01.2022;1:00;1:15;2898
08.01.2022;1:15;1:30;2911
08.01.2022;1:30;1:45;2873
08.01.2022;1:45;2:00;2840
08.01.2022;2:00;2:15;2853
08.01.2022;2:15;2:30;2875
08.01.2022;2:30;2:45;2910
08.01.2022;2:45;3:00;2917
08.01.2022;3:00;3:15;2968
08.01.2022;3:15;3:30;3016
08.01.2022;3:30;3:45;2990
08.01.2022;3:45;4:00;3068
08.01.2022;4:00;4:15;3091
08.01.2022;4:15;4:30;3103
08.01.2022;4:30;4:45;3196
08.01.2022;4:45;5:00;3185
08.01.2022;5:00;5:15;3297
08.01.2022;5:15;5:30;3296
08.01.2022;5:30;5:45;3312
08.01.2022;5:45;6:00;3268
08.01.2022;6:00;6:15;3342
08.01.2022;6:15;6:30;3396
08.01.2022;6:30;6:45;3523
08.01.2022;6:45;7:00;3606
08.01.2022;7:00;7:15;3823
08.01.2022;7:15;7:30;3951
08.01.2022;7:30;7:45;4171
08.01.2022;7:45;8:00;4282
08.01.2022;8:00;8:15;4313
08.01.2022;8:15;8:30;4413
08.01.2022;8:30;8:45;4669
08.01.2022;8:45;9:00;4899
08.01.2022;9:00;9:15;4874
08.01.2022;9:15;9:30;5031
08.01.2022;9:30;9:45;5053
08.01.2022;9:45;10:00;5143
08.01.2022;10:00;10:15;5236
08.01.2022;10:15;10:30;5356
08.01.2022;10:30;10:45;5413
08.01.2022;10:45;11:00;5492
08.01.2022;11:00;11:15;5597
08.01.2022;11:15;11:30;5869
08.01.2022;11:30;11:45;6013
08.01.2022;11:45;12:00;6004
08.01.2022;12:00;12:15;5785
08.01.2022;12:15;12:30;5611
08.01.2022;12:30;12:45;5549
08.01.2022;12:45;13:00;5445
08.01.2022;13:00;13:15;5282
08.01.2022;13:15;13:30;5110
08.01.2022;13:30;13:45;4985
08.01.2022;13:45;14:00;4874
08.01.2022;14:00;14:15;4842
08.01.2022;14:15;14:30;4752
08.01.2022;14:30;14:45;4758
08.01.2022;14:45;15:00;4666
08.01.2022;15:00;15:15;4640
08.01.2022;15:15;15:30;4718
08.01.2022;15:30;15:45;4826
08.01.2022;15:45;16:00;4979
08.01.2022;16:00;16:15;5042
08.01.2022;16:15;16:30;5090
08.01.2022;16:30;16:45;5415
08.01.2022;16:45;17:00;5649
08.01.2022;17:00;17:15;5764
08.01.2022;17:15;17:30;5898
08.01.2022;17:30;17:45;6001
08.01.2022;17:45;18:00;6063
08.01.2022;18:00;18:15;6137
08.01.2022;18:15;18:30;6122
08.01.2022;18:30;18:45;6126
08.01.2022;18:45;19:00;6049
08.01.2022;19:00;19:15;5931
08.01.2022;19:15;19:30;5725
08.01.2022;19:30;19:45;5601
08.01.2022;19:45;20:00;5515
08.01.2022;20:00;20:15;5382
08.01.2022;20:15;20:30;5230
08.01.2022;20:30;20:45;5119
08.01.2022;20:45;21:00;4903
08.01.2022;21:00;21:15;4771
08.01.2022;21:15;21:30;4711
08.01.2022;21:30;21:45;4632
08.01.2022;21:45;22:00;4618
08.01.2022;22:00;22:15;4502
08.01.2022;22:15;22:30;4332
08.01.2022;22:30;22:45;4151
08.01.2022;22:45;23:00;4007
08.01.2022;23:00;23:15;3815
08.01.2022;23:15;23:30;3698
08.01.2022;23:30;23:45;3550
08.01.2022;23:45;0:00;3403
09.01.2022;0:00;0:15;3286
09.01.2022;0:15;0:30;3177
09.01.2022;0:30;0:45;3090
09.01.2022;0:45;1:00;3001
09.01.2022;1:00;1:15;2959
09.01.2022;1:15;1:30;2883
09.01.2022;1:30;1:45;2880
09.01.2022;1:45;2:00;2883
09.01.2022;2:00;2:15;2880
09.01.2022;2:15;2:30;2882
09.01.2022;2:30;2:45;2912
09.01.2022;2:45;3:00;2919
09.01.2022;3:00;3:15;2937
09.01.2022;3:15;3:30;2980
09.01.2022;3:30;3:45;2995
09.01.2022;3:45;4:00;2968
09.01.2022;4:00;4:15;2998
09.01.2022;4:15;4:30;2990
09.01.2022;4:30;4:45;3028
09.01.2022;4:45;5:00;3067
09.01.2022;5:00;5:15;3101
09.01.2022;5:15;5:30;3138
09.01.2022;5:30;5:45;3076
09.01.2022;5:45;6:00;2991
09.01.2022;6:00;6:15;3010
09.01.2022;6:15;6:30;3048
09.01.2022;6:30;6:45;3159
09.01.2022;6:45;7:00;3261
09.01.2022;7:00;7:15;3354
09.01.2022;7:15;7:30;3459
09.01.2022;7:30;7:45;3720
09.01.2022;7:45;8:00;3807
09.01.2022;8:00;8:15;3890
09.01.2022;8:15;8:30;4026
09.01.2022;8:30;8:45;4191
09.01.2022;8:45;9:00;4232
09.01.2022;9:00;9:15;4254
09.01.2022;9:15;9:30;4320
09.01.2022;9:30;9:45;4386
09.01.2022;9:45;10:00;4392
09.01.2022;10:00;10:15;4501
09.01.2022;10:15;10:30;4824
09.01.2022;10:30;10:45;4806
09.01.2022;10:45;11:00;5054
09.01.2022;11:00;11:15;5215
09.01.2022;11:15;11:30;5750
09.01.2022;11:30;11:45;5940
09.01.2022;11:45;12:00;5781
09.01.2022;12:00;12:15;5387
09.01.2022;12:15;12:30;5073
09.01.2022;12:30;12:45;4958
09.01.2022;12:45;13:00;4810
09.01.2022;13:00;13:15;4632
09.01.2022;13:15;13:30;4574
09.01.2022;13:30;13:45;4449
09.01.2022;13:45;14:00;4325
09.01.2022;14:00;14:15;4324
09.01.2022;14:15;14:30;4306
09.01.2022;14:30;14:45;4385
09.01.2022;14:45;15:00;4432
09.01.2022;15:00;15:15;4386
09.01.2022;15:15;15:30;4465
09.01.2022;15:30;15:45;4441
09.01.2022;15:45;16:00;4484
09.01.2022;16:00;16:15;4632
09.01.2022;16:15;16:30;4710
09.01.2022;16:30;16:45;5076
09.01.2022;16:45;17:00;5342
09.01.2022;17:00;17:15;5576
09.01.2022;17:15;17:30;5755
09.01.2022;17:30;17:45;5856
09.01.2022;17:45;18:00;5939
09.01.2022;18:00;18:15;6046
09.01.2022;18:15;18:30;6044